| time (UTC) | temp F | wind direction | speed MPH | gust MPH | rain 1hr in | rain 24hr in | rain mn in | humidity % | barometer mb |
| 20260901211040 | 100 | 171 | 2.0 | 2.0 | 0.00 | 0.00 | 0.00 | 34 | 1015.4 |
| 20260901210041 | 100 | 181 | 2.0 | 2.0 | 0.00 | 0.00 | 0.00 | 34 | 1015.3 |
| 20260901205041 | 98 | 175 | 1.0 | 1.0 | 0.00 | 0.00 | 0.00 | 36 | 1015.7 |
| 20260901204041 | 98 | 201 | 7.0 | 8.0 | 0.00 | 0.00 | 0.00 | 35 | 1015.6 |
| 20260901203041 | 99 | 183 | 3.0 | 3.0 | 0.00 | 0.00 | 0.00 | 35 | 1015.8 |
| 20260901202042 | 99 | 143 | 4.0 | 6.0 | 0.00 | 0.00 | 0.00 | 36 | 1015.9 |
| 20260901201041 | 96 | 87 | 3.0 | 4.0 | 0.00 | 0.00 | 0.00 | 39 | 1016.0 |
| 20260901200041 | 97 | 164 | 3.0 | 3.0 | 0.00 | 0.00 | 0.00 | 38 | 1016.4 |
| 20260901195041 | 98 | 191 | 0.0 | 0.0 | 0.00 | 0.00 | 0.00 | 38 | 1016.1 |
| 20260901194041 | 95 | 147 | 6.0 | 7.0 | 0.00 | 0.00 | 0.00 | 40 | 1016.5 |
| 20260901193041 | 96 | 193 | 3.0 | 4.0 | 0.00 | 0.00 | 0.00 | 39 | 1016.4 |
| 20260901191041 | 96 | 201 | 2.0 | 2.0 | 0.00 | 0.00 | 0.00 | 39 | 1016.8 |
| 20260901190041 | 94 | 186 | 1.0 | 1.0 | 0.00 | 0.00 | 0.00 | 41 | 1017.0 |
| 20260901185040 | 94 | 127 | 8.0 | 10.0 | 0.00 | 0.00 | 0.00 | 41 | 1017.3 |
| 20260901184040 | 95 | 148 | 8.0 | 10.0 | 0.00 | 0.00 | 0.00 | 40 | 1017.4 |
| 20260901183100 | 94 | 60 | 6.0 | 8.0 | 0.00 | 0.00 | 0.00 | 42 | 1017.5 |
| 20260901182040 | 96 | 114 | 7.0 | 9.0 | 0.00 | 0.00 | 0.00 | 39 | 1017.9 |
| 20260901181101 | 93 | 48 | 4.0 | 4.0 | 0.00 | 0.00 | 0.00 | 42 | 1017.6 |
| 20260901180121 | 93 | 98 | 3.0 | 3.0 | 0.00 | 0.00 | 0.00 | 41 | 1018.0 |
| 20260901175040 | 94 | 132 | 4.0 | 6.0 | 0.00 | 0.00 | 0.00 | 40 | 1018.4 |
| 20260901174101 | 94 | 112 | 5.0 | 6.0 | 0.00 | 0.00 | 0.00 | 44 | 1018.4 |
| 20260901173040 | 93 | 156 | 7.0 | 8.0 | 0.00 | 0.00 | 0.00 | 45 | 1018.4 |
| 20260901172041 | 94 | 112 | 8.0 | 9.0 | 0.00 | 0.00 | 0.00 | 44 | 1018.8 |
| 20260901171040 | 95 | 87 | 4.0 | 6.0 | 0.00 | 0.00 | 0.00 | 43 | 1018.7 |
| 20260901170100 | 96 | 145 | 2.0 | 2.0 | 0.00 | 0.00 | 0.00 | 43 | 1018.8 |
| 20260901165041 | 93 | 204 | 1.0 | 1.0 | 0.00 | 0.00 | 0.00 | 46 | 1018.9 |
| 20260901164040 | 93 | 175 | 5.0 | 7.0 | 0.00 | 0.00 | 0.00 | 45 | 1019.1 |
| 20260901163040 | 95 | 156 | 6.0 | 8.0 | 0.00 | 0.00 | 0.00 | 43 | 1019.1 |
| 20260901162100 | 94 | 169 | 1.0 | 1.0 | 0.00 | 0.00 | 0.00 | 46 | 1019.1 |
| 20260901161039 | 92 | 143 | 5.0 | 6.0 | 0.00 | 0.00 | 0.00 | 46 | 1019.2 |
| 20260901160040 | 94 | 143 | 2.0 | 3.0 | 0.00 | 0.00 | 0.00 | 45 | 1019.1 |
| 20260901155040 | 92 | 170 | 3.0 | 3.0 | 0.00 | 0.00 | 0.00 | 47 | 1019.1 |
| 20260901154040 | 93 | 150 | 2.0 | 4.0 | 0.00 | 0.00 | 0.00 | 47 | 1018.9 |
| 20260901153101 | 92 | 194 | 4.0 | 4.0 | 0.00 | 0.00 | 0.00 | 49 | 1019.0 |
| 20260901152041 | 91 | 215 | 5.0 | 6.0 | 0.00 | 0.00 | 0.00 | 49 | 1019.1 |
| 20260901151040 | 91 | 206 | 2.0 | 2.0 | 0.00 | 0.00 | 0.00 | 50 | 1019.1 |
| 20260901150040 | 90 | 164 | 1.0 | 1.0 | 0.00 | 0.00 | 0.00 | 51 | 1019.1 |
| 20260901145041 | 90 | 166 | 2.0 | 2.0 | 0.00 | 0.00 | 0.00 | 52 | 1019.2 |
| 20260901144040 | 89 | 118 | 3.0 | 3.0 | 0.00 | 0.00 | 0.00 | 54 | 1019.3 |
| 20260901143040 | 88 | 187 | 1.0 | 1.0 | 0.00 | 0.00 | 0.00 | 56 | 1019.2 |
| 20260901142040 | 88 | 111 | 3.0 | 3.0 | 0.00 | 0.00 | 0.00 | 57 | 1019.1 |
| 20260901141040 | 88 | 193 | 2.0 | 2.0 | 0.00 | 0.00 | 0.00 | 57 | 1019.3 |
| 20260901140041 | 86 | 159 | 2.0 | 2.0 | 0.00 | 0.00 | 0.00 | 60 | 1019.2 |
| 20260901135041 | 85 | 184 | 1.0 | 1.0 | 0.00 | 0.00 | 0.00 | 62 | 1019.4 |
| 20260901134041 | 84 | 163 | 2.0 | 2.0 | 0.00 | 0.00 | 0.00 | 64 | 1019.2 |
| 20260901133041 | 84 | 197 | 5.0 | 7.0 | 0.00 | 0.00 | 0.00 | 64 | 1019.1 |
| 20260901132040 | 82 | 141 | 3.0 | 3.0 | 0.00 | 0.00 | 0.00 | 67 | 1019.3 |
| 20260901131041 | 81 | 145 | 6.0 | 8.0 | 0.00 | 0.00 | 0.00 | 68 | 1019.0 |
| 20260901130041 | 80 | 161 | 2.0 | 2.0 | 0.00 | 0.00 | 0.00 | 70 | 1018.9 |
| 20260901125041 | 79 | 149 | 2.0 | 2.0 | 0.00 | 0.00 | 0.00 | 70 | 1018.7 |
| 20260901124041 | 79 | 148 | 3.0 | 3.0 | 0.00 | 0.00 | 0.00 | 71 | 1018.7 |
| 20260901123041 | 78 | 133 | 3.0 | 3.0 | 0.00 | 0.00 | 0.00 | 72 | 1018.7 |
| 20260901122041 | 78 | 142 | 0.0 | 0.0 | 0.00 | 0.00 | 0.00 | 72 | 1018.5 |
| 20260901121040 | 78 | 0.0 | 0.0 | 0.00 | 0.00 | 0.00 | 72 | 1018.4 | |
| 20260901115041 | 78 | 157 | 1.0 | 1.0 | 0.00 | 0.00 | 0.00 | 72 | 1018.2 |
| 20260901114041 | 78 | 152 | 1.0 | 1.0 | 0.00 | 0.00 | 0.00 | 72 | 1018.1 |
| 20260901113041 | 78 | 136 | 1.0 | 1.0 | 0.00 | 0.00 | 0.00 | 72 | 1018.2 |
| 20260901112040 | 78 | 137 | 1.0 | 1.0 | 0.00 | 0.00 | 0.00 | 71 | 1017.7 |
| 20260901111101 | 79 | 129 | 1.0 | 1.0 | 0.00 | 0.00 | 0.00 | 71 | 1017.7 |
| 20260901110042 | 78 | 184 | 0.0 | 0.0 | 0.00 | 0.00 | 0.00 | 71 | 1017.4 |
| 20260901105041 | 78 | 184 | 1.0 | 1.0 | 0.00 | 0.00 | 0.00 | 71 | 1017.6 |
| 20260901104041 | 79 | 185 | 1.0 | 1.0 | 0.00 | 0.00 | 0.00 | 70 | 1017.6 |
| 20260901103042 | 79 | 179 | 1.0 | 1.0 | 0.00 | 0.00 | 0.00 | 69 | 1017.5 |
| 20260901102041 | 80 | 162 | 3.0 | 3.0 | 0.00 | 0.00 | 0.00 | 68 | 1017.5 |
| 20260901101041 | 80 | 167 | 2.0 | 2.0 | 0.00 | 0.00 | 0.00 | 68 | 1017.6 |
| 20260901100101 | 80 | 165 | 3.0 | 3.0 | 0.00 | 0.00 | 0.00 | 67 | 1017.7 |
| 20260901095041 | 80 | 153 | 3.0 | 3.0 | 0.00 | 0.00 | 0.00 | 66 | 1017.7 |
| 20260901094042 | 81 | 167 | 3.0 | 3.0 | 0.00 | 0.00 | 0.00 | 65 | 1017.6 |
| 20260901093040 | 81 | 170 | 1.0 | 1.0 | 0.00 | 0.00 | 0.00 | 64 | 1017.6 |
| 20260901092041 | 82 | 162 | 2.0 | 2.0 | 0.00 | 0.00 | 0.00 | 63 | 1017.7 |
| 20260901091041 | 82 | 172 | 2.0 | 2.0 | 0.00 | 0.00 | 0.00 | 62 | 1017.9 |
| 20260901090101 | 82 | 134 | 3.0 | 3.0 | 0.00 | 0.00 | 0.00 | 62 | 1017.9 |
| 20260901085041 | 82 | 141 | 4.0 | 4.0 | 0.00 | 0.00 | 0.00 | 61 | 1017.4 |
| 20260901084041 | 82 | 147 | 2.0 | 2.0 | 0.00 | 0.00 | 0.00 | 60 | 1017.6 |
| 20260901083041 | 83 | 130 | 4.0 | 4.0 | 0.00 | 0.00 | 0.00 | 60 | 1017.7 |
| 20260901082041 | 82 | 144 | 4.0 | 4.0 | 0.00 | 0.00 | 0.00 | 60 | 1017.4 |
| 20260901081041 | 82 | 114 | 4.0 | 4.0 | 0.00 | 0.00 | 0.00 | 60 | 1017.5 |
| 20260901080042 | 82 | 87 | 5.0 | 5.0 | 0.00 | 0.00 | 0.00 | 58 | 1017.4 |
| 20260901075041 | 84 | 128 | 3.0 | 3.0 | 0.00 | 0.00 | 0.00 | 55 | 1017.1 |
| 20260901074041 | 83 | 185 | 3.0 | 3.0 | 0.00 | 0.00 | 0.00 | 55 | 1017.5 |
| 20260901073041 | 83 | 152 | 4.0 | 4.0 | 0.00 | 0.00 | 0.00 | 54 | 1017.2 |
| 20260901072041 | 83 | 187 | 3.0 | 3.0 | 0.00 | 0.00 | 0.00 | 54 | 1017.2 |
| 20260901071040 | 83 | 178 | 2.0 | 2.0 | 0.00 | 0.00 | 0.00 | 54 | 1017.4 |
| 20260901070041 | 84 | 126 | 3.0 | 4.0 | 0.00 | 0.00 | 0.00 | 54 | 1017.4 |
| 20260901065101 | 84 | 161 | 2.0 | 3.0 | 0.00 | 0.00 | 0.00 | 55 | 1017.5 |
| 20260901064100 | 84 | 162 | 3.0 | 4.0 | 0.00 | 0.00 | 0.00 | 54 | 1017.4 |
| 20260901063040 | 84 | 174 | 4.0 | 6.0 | 0.00 | 0.00 | 0.00 | 54 | 1017.3 |
| 20260901062041 | 84 | 141 | 3.0 | 3.0 | 0.00 | 0.00 | 0.00 | 54 | 1017.2 |
| 20260901061041 | 84 | 156 | 2.0 | 2.0 | 0.00 | 0.00 | 0.00 | 53 | 1017.3 |
| 20260901060041 | 84 | 172 | 1.0 | 2.0 | 0.00 | 0.00 | 0.00 | 53 | 1017.2 |
| 20260901055101 | 84 | 150 | 3.0 | 3.0 | 0.00 | 0.00 | 0.00 | 53 | 1016.7 |
| 20260901054041 | 85 | 136 | 4.0 | 6.0 | 0.00 | 0.00 | 0.00 | 52 | 1016.8 |
| 20260901053101 | 85 | 154 | 3.0 | 3.0 | 0.00 | 0.00 | 0.00 | 52 | 1016.8 |
| 20260901052041 | 85 | 156 | 2.0 | 2.0 | 0.00 | 0.00 | 0.00 | 53 | 1016.8 |
| 20260901051100 | 84 | 101 | 4.0 | 4.0 | 0.00 | 0.00 | 0.00 | 56 | 1016.6 |
| 20260901050041 | 85 | 99 | 4.0 | 4.0 | 0.00 | 0.00 | 0.00 | 56 | 1016.8 |
| 20260901045101 | 85 | 126 | 4.0 | 4.0 | 0.00 | 0.00 | 0.00 | 54 | 1016.5 |
| 20260901044042 | 85 | 135 | 4.0 | 4.0 | 0.00 | 0.00 | 0.00 | 54 | 1016.4 |
| 20260901043101 | 86 | 140 | 4.0 | 4.0 | 0.00 | 0.00 | 0.00 | 52 | 1016.4 |
| 20260901042100 | 86 | 125 | 2.0 | 3.0 | 0.00 | 0.00 | 0.00 | 52 | 1016.3 |
| 20260901041040 | 85 | 144 | 4.0 | 4.0 | 0.00 | 0.00 | 0.00 | 52 | 1016.3 |
| 20260901040041 | 85 | 130 | 3.0 | 3.0 | 0.00 | 0.00 | 0.00 | 53 | 1016.5 |
| 20260901035101 | 85 | 106 | 2.0 | 2.0 | 0.00 | 0.00 | 0.00 | 54 | 1016.5 |
| 20260901034041 | 87 | 133 | 2.0 | 2.0 | 0.00 | 0.00 | 0.00 | 51 | 1016.3 |
| 20260901033041 | 88 | 145 | 2.0 | 2.0 | 0.00 | 0.00 | 0.00 | 51 | 1016.2 |
| 20260901032041 | 88 | 141 | 2.0 | 2.0 | 0.00 | 0.00 | 0.00 | 49 | 1016.4 |
| 20260901031041 | 88 | 145 | 3.0 | 3.0 | 0.00 | 0.00 | 0.00 | 49 | 1016.3 |
| 20260901030041 | 88 | 159 | 2.0 | 2.0 | 0.00 | 0.00 | 0.00 | 48 | 1016.3 |
| 20260901025041 | 88 | 152 | 3.0 | 3.0 | 0.00 | 0.00 | 0.00 | 47 | 1016.0 |
| 20260901024041 | 88 | 130 | 3.0 | 3.0 | 0.00 | 0.00 | 0.00 | 47 | 1015.8 |
| 20260901023101 | 88 | 121 | 3.0 | 3.0 | 0.00 | 0.00 | 0.00 | 48 | 1015.7 |
| 20260901022041 | 89 | 116 | 2.0 | 2.0 | 0.00 | 0.00 | 0.00 | 47 | 1015.3 |
| 20260901021121 | 89 | 109 | 2.0 | 2.0 | 0.00 | 0.00 | 0.00 | 47 | 1015.5 |
| 20260901020040 | 89 | 162 | 2.0 | 3.0 | 0.00 | 0.00 | 0.00 | 46 | 1015.4 |
| 20260901015041 | 90 | 159 | 2.0 | 2.0 | 0.00 | 0.00 | 0.00 | 43 | 1015.2 |
| 20260901014041 | 91 | 124 | 3.0 | 3.0 | 0.00 | 0.00 | 0.00 | 44 | 1015.4 |
| 20260901013040 | 90 | 107 | 3.0 | 3.0 | 0.00 | 0.00 | 0.00 | 44 | 1015.3 |
| 20260901012041 | 92 | 136 | 2.0 | 2.0 | 0.00 | 0.00 | 0.00 | 40 | 1015.1 |
| 20260901011040 | 93 | 160 | 1.0 | 1.0 | 0.00 | 0.00 | 0.00 | 38 | 1015.2 |
| 20260901010041 | 93 | 170 | 1.0 | 1.0 | 0.00 | 0.00 | 0.00 | 37 | 1015.2 |
| 20260901005101 | 94 | 147 | 2.0 | 2.0 | 0.00 | 0.00 | 0.00 | 37 | 1015.1 |
| 20260901004040 | 95 | 146 | 3.0 | 3.0 | 0.00 | 0.00 | 0.00 | 35 | 1015.0 |
| 20260901003040 | 95 | 152 | 3.0 | 4.0 | 0.00 | 0.00 | 0.00 | 35 | 1014.9 |
| 20260901002040 | 95 | 130 | 4.0 | 4.0 | 0.00 | 0.00 | 0.00 | 35 | 1015.1 |
| 20260901001040 | 96 | 137 | 3.0 | 4.0 | 0.00 | 0.00 | 0.00 | 34 | 1015.0 |
| 20260901000041 | 96 | 156 | 6.0 | 6.0 | 0.00 | 0.00 | 0.00 | 33 | 1014.8 |
| 20260831235040 | 97 | 131 | 4.0 | 4.0 | 0.00 | 0.00 | 0.00 | 31 | 1015.2 |
| 20260831234101 | 97 | 144 | 4.0 | 4.0 | 0.00 | 0.00 | 0.00 | 30 | 1015.2 |
| 20260831233041 | 97 | 118 | 3.0 | 3.0 | 0.00 | 0.00 | 0.00 | 31 | 1015.1 |
| 20260831232040 | 98 | 131 | 7.0 | 7.0 | 0.00 | 0.00 | 0.00 | 30 | 1015.2 |
| 20260831231101 | 97 | 103 | 3.0 | 3.0 | 0.00 | 0.00 | 0.00 | 32 | 1015.1 |
| 20260831230041 | 97 | 85 | 7.0 | 8.0 | 0.00 | 0.00 | 0.00 | 31 | 1015.0 |
| 20260831225041 | 97 | 100 | 5.0 | 6.0 | 0.00 | 0.00 | 0.00 | 32 | 1015.2 |
| 20260831224041 | 97 | 122 | 4.0 | 4.0 | 0.00 | 0.00 | 0.00 | 32 | 1015.2 |
| 20260831223041 | 98 | 85 | 6.0 | 7.0 | 0.00 | 0.00 | 0.00 | 30 | 1015.2 |
| 20260831222041 | 98 | 132 | 7.0 | 9.0 | 0.00 | 0.00 | 0.00 | 29 | 1015.4 |
| 20260831221101 | 99 | 111 | 9.0 | 10.0 | 0.00 | 0.00 | 0.00 | 28 | 1015.4 |
| 20260831220041 | 99 | 120 | 10.0 | 11.0 | 0.00 | 0.00 | 0.00 | 27 | 1015.6 |
| 20260831215041 | 98 | 100 | 4.0 | 4.0 | 0.00 | 0.00 | 0.00 | 28 | 1015.6 |
| 20260831214041 | 99 | 122 | 5.0 | 6.0 | 0.00 | 0.00 | 0.00 | 27 | 1015.5 |
| 20260831213040 | 99 | 97 | 7.0 | 9.0 | 0.00 | 0.00 | 0.00 | 28 | 1015.7 |
| 20260831212040 | 101 | 188 | 2.0 | 2.0 | 0.00 | 0.00 | 0.00 | 27 | 1016.0 |